Redmond, OR

9:17 AM PST on December 04, 2016 (GMT -0800)
Roberts Field Airport

Weather History for KRDM - August, 2013

Change the Weather History Date:

Saturday, August 24, 2013

  Actual Average Record
Temperature  
Mean Temperature 65 °F 63 °F  
Max Temperature 82 °F 83 °F 97 °F (1999)
Min Temperature 47 °F 44 °F 31 °F (1992)
Degree Days  
Heating Degree Days 0 3  
Month to date heating degree days 11 53  
Since 1 June heating degree days 216 339  
Since 1 July heating degree days 31 122  
Cooling Degree Days 0 2  
Month to date cooling degree days 84 71  
Year to date cooling degree days 299 197  
Since 1 June cooling degree days 290 192  
Growing Degree Days 14 (Base 50)    
Moisture  
Dew Point 49 °F    
Average Humidity 60    
Maximum Humidity 93    
Minimum Humidity 26    
Precipitation  
Precipitation 0.07 in 0.01 in 0.42 in (1997)
Month to date precipitation 0.30 0.38  
Year to date precipitation 2.22 5.61  
Sea Level Pressure  
Sea Level Pressure 29.84 in    
Wind  
Wind Speed 4 mph (NNW)    
Max Wind Speed 17 mph    
Max Gust Speed 24 mph    
Visibility 10 miles    
Events Rain , Thunderstorm    
T = Trace of Precipitation, MM = Missing Value Source: NWS Daily Summary

Daily Weather History Graph

Daily Weather History Graph

Search for Another Location

Airport or City:

Trip Planner

Search our weather history database for the weather conditions in past years. The results will help you decide how hot, cold, wet, or windy it might be!

Date:

Astronomy

Aug. 24, 2013 Rise Set
Actual Time 6:18 AM PDT 7:54 PM PDT
Civil Twilight 5:48 AM PDT 8:24 PM PDT
Nautical Twilight 5:11 AM PDT 9:01 PM PDT
Astronomical Twilight 4:31 AM PDT 9:40 PM PDT
Moon 9:39 PM PDT (8/24) 10:35 AM PDT (8/24)
Length of Visible Light 14h 36m
Length of Day
13h 35m
Waning Gibbous, 83% of the Moon is Illuminated
Aug 24
Waning Gibbous
Aug 28
Last Quarter
Sep 5
New
Sep 12
First Quarter
Sep 19
Full

Hourly Weather History & Observations

Time (PDT) Temp. Dew Point Humidity Pressure Visibility Wind Dir Wind Speed Gust Speed Precip Events Conditions
12:56 AM 57.9 °F 50.0 °F 75% 29.85 in 10.0 mi Calm Calm - N/A   Partly Cloudy
1:56 AM 59.0 °F 50.0 °F 72% 29.85 in 10.0 mi West 5.8 mph - N/A   Scattered Clouds
2:56 AM 57.0 °F 48.9 °F 74% 29.85 in 10.0 mi West 5.8 mph - N/A   Partly Cloudy
3:56 AM 54.0 °F 48.0 °F 80% 29.85 in 10.0 mi WSW 3.5 mph - N/A   Partly Cloudy
4:56 AM 48.0 °F 46.0 °F 93% 29.85 in 10.0 mi Calm Calm - N/A   Clear
5:56 AM 48.0 °F 46.0 °F 93% 29.86 in 10.0 mi SSE 4.6 mph - N/A   Mostly Cloudy
6:56 AM 50.0 °F 46.9 °F 89% 29.86 in 10.0 mi Calm Calm - N/A   Mostly Cloudy
7:56 AM 57.0 °F 48.9 °F 74% 29.86 in 10.0 mi Calm Calm - N/A   Clear
8:56 AM 60.1 °F 48.9 °F 67% 29.86 in 10.0 mi Variable 3.5 mph - N/A   Partly Cloudy
9:56 AM 63.0 °F 48.9 °F 60% 29.86 in 10.0 mi Calm Calm - N/A   Clear
10:56 AM 68.0 °F 46.9 °F 47% 29.84 in 10.0 mi Calm Calm - N/A   Clear
11:56 AM 72.0 °F 48.0 °F 43% 29.81 in 10.0 mi Variable 3.5 mph - N/A   Clear
12:56 PM 75.0 °F 46.0 °F 36% 29.79 in 10.0 mi Variable 3.5 mph 16.1 mph N/A   Clear
1:56 PM 79.0 °F 45.0 °F 30% 29.78 in 10.0 mi North 13.8 mph - N/A   Clear
2:56 PM 77.0 °F 42.1 °F 29% 29.78 in 10.0 mi North 11.5 mph - N/A   Partly Cloudy
3:56 PM 81.0 °F 43.0 °F 26% 29.75 in 10.0 mi North 9.2 mph 17.3 mph 0.00 in   Clear
4:56 PM 77.0 °F 42.1 °F 29% 29.76 in 10.0 mi WNW 13.8 mph - N/A   Scattered Clouds
5:04 PM 80.6 °F 42.8 °F 26% 29.82 in 10.0 mi NW 15.0 mph - N/A Thunderstorm Mostly Cloudy
5:17 PM 78.8 °F 41.0 °F 26% 29.83 in 10.0 mi NW 11.5 mph - N/A Thunderstorm Mostly Cloudy
5:40 PM 64.4 °F 53.6 °F 68% 29.87 in 1.8 mi Calm Calm - 0.06 in Rain , Thunderstorm Heavy Thunderstorms and Rain
5:41 PM 62.6 °F 53.6 °F 72% 29.87 in 10.0 mi Calm Calm - 0.06 in Rain , Thunderstorm Heavy Thunderstorms and Rain
5:56 PM 64.0 °F 55.9 °F 75% 29.83 in 10.0 mi NE 5.8 mph - 0.07 in Rain , Thunderstorm Light Thunderstorms and Rain
6:04 PM 64.4 °F 57.2 °F 77% 29.86 in 10.0 mi ENE 5.8 mph - 0.00 in Rain Light Rain
6:56 PM 62.1 °F 55.0 °F 78% 29.83 in 10.0 mi NNE 4.6 mph - 0.00 in   Clear
7:56 PM 62.1 °F 55.0 °F 78% 29.87 in 10.0 mi Calm Calm - N/A   Mostly Cloudy
8:56 PM 60.1 °F 55.0 °F 83% 29.87 in 10.0 mi NE 5.8 mph - 0.00 in   Overcast
9:56 PM 60.1 °F 54.0 °F 80% 29.88 in 10.0 mi Calm Calm - 0.00 in   Clear
10:56 PM 59.0 °F 54.0 °F 83% 29.89 in 10.0 mi WSW 3.5 mph - N/A   Clear
11:56 PM 57.0 °F 53.1 °F 87% 29.88 in 10.0 mi SSE 3.5 mph - N/A   Clear